Flag for U.S.A. Weather past 2 weeks in Grand Rapids, Michigan, U.S.A.

Now
22 °F

Partly sunny.


Feels Like: 14 °F
Forecast: 16 / 21 °F
Wind: 6 mph from North

Location: Kent County International Airport

Current Time: Jan 30, 2015 at 12:58:38 PM

Latest Report: Jan 30, 2015 at 11:53 AM


Visibility: 10 mi

Pressure: 30.51 "Hg

Humidity: 55%

Dew point: 8 °F

Location of Grand RapidsLocation

Historic Weather in Grand Rapids — Graph

°F

Grand Rapids temperature yesterday

Maximum temperature yesterday: 32 °F (at 12:53 PM)
Minimum temperature yesterday: 23 °F (at 11:53 PM)
Average temperature yesterday: 30 °F

Past Weeks' High & Low Weather Summary

 TemperatureHumidityPressure
High43 °F (Jan 17, 3:53 PM)100% (Jan 18, 6:53 AM)30.51 "Hg (Jan 18, 6:53 AM)
Low8 °F (Jan 26, 6:53 AM)39% (Jan 28, 7:53 PM)29.59 "Hg (Jan 24, 2:53 PM)
Average27 °F75%30.02 "Hg
* Reported Jan 15 11:53 AM — Jan 30 11:53 AM, Grand Rapids, Weather by CustomWeather, © 2014

Note: Actual official high and low records may vary slightly from our data, if they occured in-between our weather recording intervals... More about our weather records

Advertising

Grand Rapids weather history for previous 24 hours

 ConditionsComfort  
Time TempWeatherWind HumidityBarometerVisibility
11:53 AM
Jan 30
22 °FPartly sunny.6 mph55%30.51 "Hg10 mi
10:53 AM20 °FOvercast.10 mph57%30.51 "Hg10 mi
9:53 AM20 °FOvercast.13 mph57%30.49 "Hg10 mi
8:53 AM20 °FOvercast.13 mph57%30.47 "Hg10 mi
7:53 AM20 °FOvercast.13 mph57%30.45 "Hg10 mi
6:53 AM20 °FOvercast.20 mph57%30.41 "Hg10 mi
5:53 AM20 °FLight snow. Overcast.17 mph57%30.39 "Hg9 mi
4:53 AM20 °FOvercast.15 mph71%30.36 "Hg10 mi
3:53 AM21 °FOvercast.14 mph71%30.33 "Hg10 mi
2:53 AM21 °FLight snow. Mostly cloudy.14 mph74%30.30 "Hg5 mi
1:53 AM22 °FOvercast.21 mph68%30.28 "Hg10 mi
12:53 AM23 °FMostly cloudy.15 mph68%30.25 "Hg10 mi
11:53 PM
Jan 29
23 °FLight snow. Mostly cloudy.17 mph65%30.24 "Hg9 mi
10:53 PM27 °FLight snow. Overcast.23 mph69%30.19 "Hg7 mi
9:53 PM29 °FLight snow. Mostly cloudy.15 mph75%30.14 "Hg6 mi
8:53 PM31 °FLight snow. Mostly cloudy.15 mph79%30.11 "Hg7 mi
7:53 PM32 °FLight snow. Mostly cloudy.13 mph75%30.08 "Hg9 mi
6:53 PM32 °FDrizzle. Overcast.17 mph73%30.04 "Hg9 mi
5:53 PM32 °FDrizzle. Mostly cloudy.20 mph79%30.00 "Hg9 mi
4:53 PM32 °FDrizzle. Mostly cloudy.18 mph82%29.95 "Hg8 mi
3:53 PM32 °FLight snow. Overcast.18 mph82%29.90 "Hg5 mi
2:53 PM32 °FMostly cloudy.14 mph82%29.85 "Hg5 mi
1:53 PM32 °FLight snow. Mostly cloudy.12 mph82%29.82 "Hg1 mi
12:53 PM32 °FLight snow. Ice fog.13 mph85%29.81 "Hg2 mi
Weather by CustomWeather, © 2014

See weather overviewHow to use our weather pages